DECAYED

JIELONG 3 R/B, 61237 (Decayed)

Orbit data source: Space-Track

JIELONG 3 R/B, 61237 was space debris in LEO originally from a launch on Tue, 24 Sep 2024 UTC launched from the Yellow Sea Launch Area, China (YSLA). Debris objects in space refer to the collection of defunct objects orbiting the Earth. Examples of debris include non-operational satellites, rocket bodies, and fragments generated from explosions, collisions, or faulty payload assembly.

Not visible in the next 10 days
Identifier
61237, 2024-173L
Orbit
Decayed
Country
Flag of CNCN / PRC
Related business
Manufacturer
Changzheng H.
Mission
Decayed spacecraft
Bus & Motor
Unknown
Mass
500 kg wet, 500 kg dry
Launch date (UTC)
2024-09-24 (1 year ago)
Launch vehicle
Unknown
Launch site
Yellow Sea Launch Area, China (YSLA)
Object type
Payload
Rocket body
Debris
Shape & HBR
Unknown shape, 1.9 m
Radar Cross Section
Large (>1 m²)

Expand to show TLE details & history
Last TLE update: 1 week ago

TLE from 1 week ago
0 JIELONG 3 R/B
1 61237U 24173L   25291.03873492  .11255955  27192-5  20412-3 0  9992
2 61237  97.6178  39.9375 0013362 280.4532  79.5265 16.46692916 60644
Epoch: 2025-10-18T00:55Z
TLE epoch observation values (Epoch: 2025-10-18T00:55:46.697Z)
Latitude
0.00007°
Longitude
-0.78256°
Altitude
149.738 km
Speed
7.817 km/s
True Right ascension
02h 39m 44s
True Declination
0° 00' 00"
Sunlit
Object was in full shadow at epoch
Visualization orbit readout
Latitude
Unknown
Longitude
Unknown
Altitude
Unknown
Speed
Unknown
Apparent Right ascension
Unknown
Apparent Declination
Unknown
Sunlit
N/A
Visualization observer readout
Local Sidereal Time
11:51:50
Azimuth
Unknown
Elevation
Unknown
Doppler factor
Unknown
Orbital elements
Apogee altitude
153.584 km
Perigee altitude
136.152 km
Semi-major axis
6,523.005 km
Eccentricity
0.00134
Inclination
97.6178°
RAAN
39.9375°
Arg. of periapsis
280.4532°
True anomaly
79.67711°
Mean anomaly
79.5265°
Eccentric anomaly
79.6018°
Mean motion
4.11976 °/min
Orbital period
87.38 mins
BSTAR
0.00020412
Loading maneuver chart data...
Computing Atmospheric mass density...
Loading historical data...
Loading historical data...
Loading historical data...
Loading historical data...
Loading historical data...
Loading historical data...
Loading historical data...

Documentation

Showing up to 5 results
|